[[{"header":{"parameterUnit":"m.s-1","parameterCategory":1,"la1":30.2991,"la2":30.254,"lo1":-89.0895,"lo2":-89.0444,"dy":0.0017,"dx":0.0017,"nx":28,"ny":28,"refTime":"2025-04-15T21:00:00:Z","depth":0,"parameterNumber":2,"parameterNumberName":"U-component_of_WINDS"},"data":[0,0,0,0,0,0,0,0,0,0,0,0,0,0,0,0,0,0,0,0,0,0,0,0,0,0,0,0,0,0,0,0,0,0,0,0,0,0,0,0,0,0,0,0,0,0,0,0,0,0,0,0,0,0,0,0,0,0,0.3946,0.3948,0,0.4084,0.4085,0.4087,0.4166,0.4166,0.4166,0.4167,0.4307,0.431,0.4313,0,0,0,0,0,0,0,0,0,0,0,0,0,0.375,0.3753,0.3946,0.3948,0.395,0.4084,0.4085,0.4087,0.4166,0.4166,0.4166,0.4167,0.4305,0.431,0.4314,0,0,0,0,0,0,0,0,0,0,0,0,0,0.3856,0.3754,0.3946,0.4005,0.4011,0.4083,0.4086,0.4088,0.4166,0.4166,0.4166,0.4167,0.4304,0.4309,0.4314,0.4338,0,0,0.433,0.4332,0,0,0,0,0,0,0,0,0.385,0.3863,0.3994,0.4001,0.4008,0.4108,0.4068,0.4172,0.4166,0.4107,0.4167,0.4167,0.424,0.4251,0.4275,0.4344,0.435,0.4331,0.4334,0.4336,0.4337,0,0,0,0,0,0,0,0.3842,0.3858,0.4001,0.3996,0.4005,0.4024,0.404,0.4088,0.4169,0.4112,0.4118,0.4134,0.4244,0.427,0.4279,0.4352,0.433,0.4335,0.4338,0.434,0.4446,0.4446,0,0,0,0,0,0,0.3826,0.3851,0.3996,0.4005,0.3929,0.4027,0.4045,0.4076,0.4169,0.4184,0.4133,0.4137,0.4261,0.4273,0.4284,0.4318,0.4336,0.4341,0.4344,0.4447,0.4446,0.4446,0,0,0,0,0,0,0.3821,0.3838,0.3991,0.393,0.395,0.403,0.4064,0.4078,0.4104,0.4185,0.42,0.4145,0.4262,0.4277,0.4324,0.4323,0.4343,0.4348,0.4447,0.4447,0.4446,0.4384,0,0,0,0,0,0,0.3815,0.3836,0.3846,0.3929,0.3953,0.4028,0.4064,0.408,0.4113,0.4119,0.42,0.4214,0.4263,0.4316,0.4329,0.4331,0.4352,0.4447,0.4447,0.4446,0.4386,0.4381,0.4377,0,0,0,0,0,0.3808,0.3822,0.3846,0.3863,0.3968,0.4027,0.4041,0.4099,0.4113,0.4123,0.4175,0.4211,0.4321,0.432,0.4335,0.4339,0.4448,0.4447,0.4446,0.4388,0.4382,0.4377,0,0,0,0,0,0,0.3736,0.3834,0.3861,0.3904,0.3957,0.4041,0.4055,0.409,0.414,0.4144,0.4213,0.423,0.427,0.4309,0.4306,0.4366,0.4389,0.4391,0.4339,0.4334,0.4329,0.4318,0.4356,0,0,0,0,0,0.3726,0.3767,0.385,0.3879,0.3904,0.3975,0.4003,0.4043,0.4101,0.4123,0.4179,0.4233,0.428,0.4309,0.4357,0.4392,0.4411,0.4403,0.4398,0.4394,0.4395,0.4416,0.4413,0.4444,0.4444,0.4444,0,0,0.3704,0.3762,0.3784,0.3866,0.3912,0.3952,0.3993,0.4034,0.4065,0.413,0.4177,0.4219,0.4284,0.4325,0.4346,0.4359,0.4391,0.4393,0.4389,0.4393,0.4415,0.4412,0.4409,0.4444,0.4444,0.4444,0,0,0.3684,0.3733,0.3762,0.3807,0.3876,0.3923,0.393,0.4009,0.404,0.4088,0.4137,0.4174,0.4254,0.4298,0.4331,0.4328,0.4363,0.4342,0.4317,0.4337,0.4335,0.4333,0.4331,0.433,0.4343,0.4342,0.4342,0,0.3647,0.3711,0.3772,0.3811,0.3845,0.3906,0.3936,0.3977,0.4057,0.4079,0.4093,0.4194,0.4242,0.4294,0.4293,0.4318,0.4328,0.4332,0.433,0.4329,0.4328,0.4327,0.4326,0.4339,0.434,0.434,0.434,0,0.3662,0.3705,0.3721,0.3797,0.3834,0.3867,0.3934,0.3963,0.3999,0.4045,0.4093,0.4153,0.4214,0.4229,0.4265,0.4286,0.4292,0.4317,0.4341,0.4321,0.4321,0.4321,0.4335,0.4336,0.4337,0.4338,0,0,0.3601,0.3711,0.3716,0.3751,0.3832,0.3866,0.3902,0.3962,0.3985,0.4039,0.4071,0.4137,0.416,0.4198,0.4239,0.4257,0.4249,0.428,0.4282,0.4271,0.4275,0.4255,0.4254,0.4273,0.4274,0.4274,0.4269,0,0.3592,0.366,0.3717,0.3764,0.3804,0.3863,0.3895,0.3947,0.399,0.403,0.4079,0.4124,0.4152,0.4175,0.4195,0.4246,0.4251,0.4247,0.4303,0.4304,0.4284,0.4254,0.4233,0.4226,0.427,0.427,0.427,0,0.3591,0.3642,0.3693,0.377,0.3789,0.3816,0.3875,0.3913,0.3974,0.4004,0.4045,0.4089,0.4129,0.4149,0.4206,0.4202,0.4228,0.4257,0.4258,0.4264,0.4285,0.4259,0.4225,0.4223,0.4271,0.4271,0.4271,0,0.3539,0.3622,0.3663,0.3691,0.3782,0.3799,0.3838,0.3899,0.3931,0.3983,0.4004,0.406,0.409,0.4131,0.4188,0.4198,0.4239,0.4264,0.4264,0.4263,0.4269,0.4268,0.4238,0.4288,0.4288,0.4288,0.4288,0,0.3523,0.3551,0.3641,0.3666,0.37,0.3765,0.3796,0.384,0.3894,0.3928,0.3982,0.4013,0.4087,0.4127,0.4172,0.4211,0.4225,0.425,0.4261,0.4244,0.4241,0.4262,0.4263,0.4288,0.4288,0.4288,0.4288,0,0.347,0.3532,0.358,0.3662,0.3683,0.3704,0.3774,0.3801,0.3847,0.389,0.3904,0.3977,0.4026,0.4087,0.4157,0.4187,0.4221,0.4239,0.4201,0.4207,0.4204,0.4203,0.4186,0.4186,0.4235,0.4235,0.4234,0,0.3455,0.3479,0.3563,0.359,0.3627,0.367,0.3703,0.3768,0.38,0.3871,0.3889,0.3943,0.3989,0.4065,0.4124,0.4177,0.4196,0.4187,0.4204,0.4187,0.4195,0.4192,0.4195,0.4181,0.4181,0.418,0.4179,0,0.3422,0.3451,0.3497,0.3553,0.3592,0.3639,0.3689,0.3708,0.3783,0.3816,0.3868,0.3903,0.3974,0.4027,0.4087,0.4127,0.4165,0.4174,0.4176,0.4159,0.4135,0.4147,0.4187,0.4173,0.4174,0.4174,0.4175,0.4175,0.3387,0.3411,0.3474,0.3523,0.3567,0.3613,0.3641,0.3692,0.3736,0.3799,0.3834,0.3884,0.3945,0.403,0.4068,0.4108,0.4122,0.4126,0.4127,0.4127,0.4121,0.4129,0.4119,0.4119,0.412,0.412,0.412,0,0.3355,0.3399,0.3444,0.3512,0.355,0.3585,0.3641,0.3671,0.3715,0.3768,0.3812,0.3871,0.3922,0.3985,0.404,0.406,0.4079,0.4072,0.4071,0.4079,0.4106,0.4097,0.4056,0.4056,0.4056,0.4056,0.4056,0.4056,0.3343,0.3385,0.3421,0.3485,0.3528,0.3578,0.3608,0.3649,0.3692,0.3755,0.3798,0.3839,0.3896,0.3956,0.4004,0.4022,0.4039,0.4026,0.4048,0.4072,0.4077,0.4083,0.4075,0.403,0.403,0.4019,0.4019,0.4019]},{"header":{"parameterUnit":"m.s-1","parameterCategory":1,"la1":30.2991,"la2":30.254,"lo1":-89.0895,"lo2":-89.0444,"dy":0.0017,"dx":0.0017,"nx":28,"ny":28,"refTime":"2025-04-15T21:00:00:Z","depth":0,"parameterNumber":3,"parameterNumberName":"V-component_of_WINDS"},"data":[0,0,0,0,0,0,0,0,0,0,0,0,0,0,0,0,0,0,0,0,0,0,0,0,0,0,0,0,0,0,0,0,0,0,0,0,0,0,0,0,0,0,0,0,0,0,0,0,0,0,0,0,0,0,0,0,0,0,2.9713,2.9712,0,2.9685,2.9684,2.9684,2.9665,2.9665,2.9665,2.9665,2.9632,2.9631,2.9631,0,0,0,0,0,0,0,0,0,0,0,0,0,2.9747,2.9746,2.9713,2.9712,2.9712,2.9685,2.9684,2.9684,2.9665,2.9665,2.9665,2.9664,2.9632,2.9631,2.9631,0,0,0,0,0,0,0,0,0,0,0,0,0,2.9727,2.9746,2.9713,2.9699,2.9698,2.9685,2.9684,2.9684,2.9665,2.9665,2.9665,2.9664,2.9633,2.9632,2.963,2.9627,0,0,2.9627,2.9627,0,0,0,0,0,0,0,0,2.9728,2.9725,2.9702,2.97,2.9699,2.9678,2.9684,2.9665,2.9665,2.9677,2.9665,2.9664,2.9647,2.9645,2.964,2.9626,2.9624,2.9627,2.9626,2.9626,2.9625,0,0,0,0,0,0,0,2.9729,2.9726,2.9701,2.9701,2.9699,2.9694,2.9691,2.9681,2.9664,2.9676,2.9675,2.9672,2.9646,2.9641,2.9639,2.9624,2.9627,2.9626,2.9625,2.9625,2.9606,2.9606,0,0,0,0,0,0,2.9733,2.9728,2.9702,2.9701,2.9713,2.9693,2.969,2.9685,2.9664,2.966,2.9672,2.9671,2.9643,2.964,2.9638,2.9633,2.9626,2.9625,2.9624,2.9605,2.9606,2.9606,0,0,0,0,0,0,2.9734,2.9731,2.9703,2.9714,2.971,2.9693,2.9687,2.9684,2.9679,2.9661,2.9657,2.967,2.9643,2.9639,2.963,2.9631,2.9624,2.9623,2.9605,2.9605,2.9606,2.9622,0,0,0,0,0,0,2.9735,2.9731,2.9731,2.9714,2.9709,2.9697,2.9687,2.9684,2.9678,2.9676,2.9658,2.9655,2.9642,2.9632,2.9629,2.963,2.9622,2.9605,2.9605,2.9606,2.9622,2.9623,2.9625,0,0,0,0,0,2.9736,2.9736,2.9731,2.9728,2.9708,2.9697,2.9695,2.9682,2.9678,2.9677,2.9665,2.9655,2.9632,2.9631,2.9628,2.9628,2.9605,2.9605,2.9606,2.9621,2.9623,2.9625,0,0,0,0,0,0,2.9752,2.9733,2.9728,2.9722,2.9712,2.9694,2.9692,2.9684,2.9674,2.9673,2.9656,2.9652,2.9645,2.9635,2.9635,2.9624,2.9617,2.9617,2.963,2.9632,2.9633,2.9635,2.9621,0,0,0,0,0,2.9755,2.9749,2.9732,2.9729,2.9724,2.9709,2.9704,2.9695,2.9683,2.9678,2.9666,2.9654,2.9644,2.9637,2.9627,2.9621,2.9616,2.9619,2.962,2.9622,2.9621,2.9617,2.9618,2.9607,2.9607,2.9607,0,0,2.976,2.975,2.9746,2.9732,2.9723,2.9716,2.9706,2.9698,2.9693,2.9677,2.9668,2.9658,2.9644,2.9636,2.9632,2.9628,2.9623,2.9622,2.9623,2.9622,2.9617,2.9618,2.9619,2.9607,2.9607,2.9607,0,0,2.9767,2.9759,2.9755,2.9746,2.9733,2.9724,2.9723,2.9707,2.97,2.9691,2.9679,2.9672,2.9655,2.9645,2.9638,2.9641,2.9632,2.9638,2.9645,2.9641,2.9642,2.9643,2.9644,2.9644,2.9638,2.9638,2.9638,0,2.9775,2.9766,2.9754,2.9748,2.9741,2.9728,2.9724,2.9715,2.9699,2.9695,2.9691,2.967,2.9659,2.9649,2.965,2.9644,2.9642,2.964,2.9643,2.9644,2.9644,2.9645,2.9645,2.9639,2.9639,2.9639,2.9639,0,2.9776,2.9769,2.9768,2.9754,2.9747,2.9742,2.9729,2.9723,2.9715,2.9706,2.9696,2.9683,2.967,2.9667,2.9658,2.9655,2.9653,2.9647,2.964,2.9647,2.9647,2.9647,2.964,2.964,2.964,2.964,0,0,2.9791,2.9772,2.9771,2.9765,2.975,2.9744,2.9738,2.9726,2.9722,2.9711,2.9705,2.9691,2.9685,2.9677,2.9667,2.9664,2.9668,2.9658,2.9657,2.966,2.9663,2.9668,2.9668,2.9662,2.9662,2.9662,2.9664,0,2.9795,2.9785,2.9774,2.9767,2.976,2.9748,2.9743,2.9732,2.9723,2.9716,2.9705,2.9696,2.9689,2.9684,2.968,2.9668,2.9668,2.9668,2.9655,2.9654,2.9658,2.9668,2.9673,2.9676,2.9664,2.9664,2.9664,0,2.9798,2.979,2.9782,2.9768,2.9765,2.9761,2.9749,2.9742,2.973,2.9724,2.9715,2.9705,2.9697,2.9692,2.968,2.968,2.9674,2.9668,2.9668,2.9665,2.9659,2.9666,2.9677,2.9677,2.9664,2.9664,2.9664,0,2.9809,2.9796,2.979,2.9785,2.9768,2.9765,2.9758,2.9746,2.974,2.973,2.9725,2.9714,2.9707,2.9698,2.9685,2.9683,2.9675,2.9668,2.9668,2.9669,2.9667,2.9667,2.9676,2.9664,2.9664,2.9664,2.9664,0,2.9814,2.981,2.9795,2.9791,2.9786,2.9773,2.9768,2.976,2.9749,2.9743,2.9731,2.9725,2.9709,2.97,2.969,2.9682,2.9679,2.9673,2.967,2.9673,2.9674,2.9669,2.9668,2.9664,2.9664,2.9664,2.9664,0,2.9826,2.9815,2.9808,2.9793,2.9789,2.9786,2.9773,2.9769,2.9759,2.9752,2.9749,2.9734,2.9724,2.971,2.9695,2.9688,2.9681,2.9677,2.9685,2.9684,2.9685,2.9685,2.969,2.969,2.9679,2.9679,2.9679,0,2.9829,2.9826,2.9812,2.9807,2.9801,2.9794,2.9788,2.9776,2.977,2.9756,2.9753,2.9742,2.9733,2.9717,2.9704,2.9692,2.9688,2.969,2.9686,2.9689,2.9687,2.9687,2.9687,2.9691,2.9691,2.9692,2.9692,0,2.9837,2.9832,2.9825,2.9816,2.9809,2.9801,2.9792,2.9789,2.9775,2.9768,2.9759,2.9752,2.9737,2.9726,2.9713,2.9705,2.9695,2.9694,2.9693,2.9696,2.9701,2.9698,2.9688,2.9693,2.9693,2.9693,2.9693,2.9693,2.9844,2.9841,2.9831,2.9823,2.9815,2.9807,2.9802,2.9793,2.9785,2.9773,2.9766,2.9757,2.9744,2.9726,2.9718,2.971,2.9706,2.9705,2.9705,2.9705,2.9706,2.9703,2.9707,2.9707,2.9707,2.9707,2.9707,0,2.9851,2.9844,2.9837,2.9826,2.9819,2.9813,2.9803,2.9798,2.979,2.978,2.9772,2.976,2.975,2.9737,2.9725,2.9721,2.9716,2.9718,2.9718,2.9716,2.971,2.9711,2.9722,2.9722,2.9722,2.9722,2.9722,2.9722,2.9854,2.9848,2.9842,2.9832,2.9824,2.9816,2.9811,2.9803,2.9795,2.9784,2.9775,2.9767,2.9756,2.9744,2.9733,2.973,2.9726,2.9729,2.9724,2.9718,2.9716,2.9715,2.9717,2.9728,2.9728,2.973,2.973,2.973]}]]